LUCH-5X (OLYMP-K 2)

Last updated on Sun Jun 21 2026 00:03:09 GMT+0000 (Coordinated Universal Time)

1 55841U 23031A 26171.19039038 .00000028 00000+0 00000+0 0 9990 2 55841 0.0319 70.1111 0000849 132.8971 195.9281 1.00272356 11969
UTC large
Height (km)
Speed (km/s)
/
Latitude / Longitude
Inclination (degrees)
Orbital Period (minutes)
Azimuth
Elevation
Range (km)
Doppler Factor

Next 0 passes for location: London (51.5072 / 0.1276)

No passes found over London.
LUCH-5X (OLYMP-K 2)